Year,Month,Day,Hour,Minute,Value (Times are PST for temperature in C)
2019,10,01,00,00,5.30
2019,10,01,00,01,5.30
2019,10,01,00,02,5.30
2019,10,01,00,03,5.30
2019,10,01,00,04,5.30
2019,10,01,00,05,5.20
2019,10,01,00,06,5.20
2019,10,01,00,07,5.20
2019,10,01,00,08,5.20
2019,10,01,00,09,5.20
2019,10,01,00,10,5.20
2019,10,01,00,11,5.20
2019,10,01,00,12,5.20
2019,10,01,00,13,5.20
2019,10,01,00,14,5.10
2019,10,01,00,15,5.10
2019,10,01,00,16,5.10
2019,10,01,00,17,5.10
2019,10,01,00,18,5.10
2019,10,01,00,19,5.10
2019,10,01,00,20,5.10
2019,10,01,00,21,5.10
2019,10,01,00,22,5.00
2019,10,01,00,23,5.00
2019,10,01,00,24,5.00
2019,10,01,00,25,5.00
2019,10,01,00,26,5.00
2019,10,01,00,27,5.00
2019,10,01,00,28,4.90
2019,10,01,00,29,4.90
2019,10,01,00,30,5.00
2019,10,01,00,31,4.90
2019,10,01,00,32,4.90
2019,10,01,00,33,4.90
2019,10,01,00,34,4.90
2019,10,01,00,35,4.90
2019,10,01,00,36,4.90
2019,10,01,00,37,4.90
2019,10,01,00,38,4.90
2019,10,01,00,39,4.90
2019,10,01,00,40,4.90
2019,10,01,00,41,4.90
2019,10,01,00,42,4.90
2019,10,01,00,43,4.90
2019,10,01,00,44,4.90
2019,10,01,00,45,4.90
2019,10,01,00,46,4.90
2019,10,01,00,47,4.90
2019,10,01,00,48,4.90
2019,10,01,00,49,4.90
2019,10,01,00,50,4.90
2019,10,01,00,51,4.90
2019,10,01,00,52,4.90
2019,10,01,00,53,4.80
2019,10,01,00,54,4.80
2019,10,01,00,55,4.80
2019,10,01,00,56,4.80
2019,10,01,00,57,4.80
2019,10,01,00,58,4.80
2019,10,01,00,59,4.80
2019,10,01,01,00,4.80
2019,10,01,01,01,4.80
2019,10,01,01,02,4.80
2019,10,01,01,03,4.80
2019,10,01,01,04,4.80
2019,10,01,01,05,4.90
2019,10,01,01,06,4.90
2019,10,01,01,07,4.90
2019,10,01,01,08,4.90
2019,10,01,01,09,4.90
2019,10,01,01,10,5.00
2019,10,01,01,11,5.00
2019,10,01,01,12,5.00
2019,10,01,01,13,5.00
2019,10,01,01,14,5.00
2019,10,01,01,15,5.10
2019,10,01,01,16,5.10
2019,10,01,01,17,5.10
2019,10,01,01,18,5.10
2019,10,01,01,19,5.10
2019,10,01,01,20,5.10
2019,10,01,01,21,5.10
2019,10,01,01,22,5.10
2019,10,01,01,23,5.10
2019,10,01,01,24,5.10
2019,10,01,01,25,5.10
2019,10,01,01,26,5.10
2019,10,01,01,27,5.10
2019,10,01,01,28,5.10
2019,10,01,01,29,5.10
2019,10,01,01,30,5.20
2019,10,01,01,31,5.20
2019,10,01,01,32,5.20
2019,10,01,01,33,5.20
2019,10,01,01,34,5.30
2019,10,01,01,35,5.30
2019,10,01,01,36,5.30
2019,10,01,01,37,5.30
2019,10,01,01,38,5.30
2019,10,01,01,39,5.30
2019,10,01,01,40,5.30
2019,10,01,01,41,5.30
2019,10,01,01,42,5.30
2019,10,01,01,43,5.30
2019,10,01,01,44,5.30
2019,10,01,01,45,5.40
2019,10,01,01,46,5.40
2019,10,01,01,47,5.40
2019,10,01,01,48,5.40
2019,10,01,01,49,5.40
2019,10,01,01,50,5.50
2019,10,01,01,51,5.50
2019,10,01,01,52,5.50
2019,10,01,01,53,5.50
2019,10,01,01,54,5.50
2019,10,01,01,55,5.60
2019,10,01,01,56,5.60
2019,10,01,01,57,5.60
2019,10,01,01,58,5.60
2019,10,01,01,59,5.60
2019,10,01,02,00,5.60
2019,10,01,02,01,5.60
2019,10,01,02,02,5.60
2019,10,01,02,03,5.60
2019,10,01,02,04,5.70
2019,10,01,02,05,5.70
2019,10,01,02,06,5.70
2019,10,01,02,07,5.70
2019,10,01,02,08,5.70
2019,10,01,02,09,5.70
2019,10,01,02,10,5.70
2019,10,01,02,11,5.70
2019,10,01,02,12,5.70
2019,10,01,02,13,5.70
2019,10,01,02,14,5.70
2019,10,01,02,15,5.70
2019,10,01,02,16,5.70
2019,10,01,02,17,5.70
2019,10,01,02,18,5.70
2019,10,01,02,19,5.70
2019,10,01,02,20,5.70
2019,10,01,02,21,5.70
2019,10,01,02,22,5.70
2019,10,01,02,23,5.70
2019,10,01,02,24,5.70
2019,10,01,02,25,5.70
2019,10,01,02,26,5.70
2019,10,01,02,27,5.70
2019,10,01,02,28,5.70
2019,10,01,02,29,5.70
2019,10,01,02,30,5.70
2019,10,01,02,31,5.70
2019,10,01,02,32,5.70
2019,10,01,02,33,5.70
2019,10,01,02,34,5.70
2019,10,01,02,35,5.70
2019,10,01,02,36,5.70
2019,10,01,02,37,5.70
2019,10,01,02,38,5.70
2019,10,01,02,39,5.60
2019,10,01,02,40,5.60
2019,10,01,02,41,5.60
2019,10,01,02,42,5.60
2019,10,01,02,43,5.60
2019,10,01,02,44,5.50
2019,10,01,02,45,5.50
2019,10,01,02,46,5.50
2019,10,01,02,47,5.40
2019,10,01,02,48,5.40
2019,10,01,02,49,5.40
2019,10,01,02,50,5.40
2019,10,01,02,51,5.40
2019,10,01,02,52,5.40
2019,10,01,02,53,5.30
2019,10,01,02,54,5.30
2019,10,01,02,55,5.30
2019,10,01,02,56,5.30
2019,10,01,02,57,5.30
2019,10,01,02,58,5.30
2019,10,01,02,59,5.30
2019,10,01,03,00,5.30
2019,10,01,03,01,5.30
2019,10,01,03,02,5.30
2019,10,01,03,03,5.30
2019,10,01,03,04,5.30
2019,10,01,03,05,5.30
2019,10,01,03,06,5.30
2019,10,01,03,07,5.30
2019,10,01,03,08,5.30
2019,10,01,03,09,5.20
2019,10,01,03,10,5.20
2019,10,01,03,11,5.20
2019,10,01,03,12,5.20
2019,10,01,03,13,5.20
2019,10,01,03,14,5.20
2019,10,01,03,15,5.20
2019,10,01,03,16,5.20
2019,10,01,03,17,5.20
2019,10,01,03,18,5.20
2019,10,01,03,19,5.20
2019,10,01,03,20,5.20
2019,10,01,03,21,5.20
2019,10,01,03,22,5.20
2019,10,01,03,23,5.20
2019,10,01,03,24,5.20
2019,10,01,03,25,5.20
2019,10,01,03,26,5.10
2019,10,01,03,27,5.20
2019,10,01,03,28,5.10
2019,10,01,03,29,5.10
2019,10,01,03,30,5.10
2019,10,01,03,31,5.10
2019,10,01,03,32,5.10
2019,10,01,03,33,5.00
2019,10,01,03,34,5.00
2019,10,01,03,35,5.00
2019,10,01,03,36,4.90
2019,10,01,03,37,4.90
2019,10,01,03,38,4.90
2019,10,01,03,39,4.90
2019,10,01,03,40,4.90
2019,10,01,03,41,4.90
2019,10,01,03,42,4.90
2019,10,01,03,43,4.90
2019,10,01,03,44,4.90
2019,10,01,03,45,5.00
2019,10,01,03,46,5.00
2019,10,01,03,47,5.00
2019,10,01,03,48,5.00
2019,10,01,03,49,5.00
2019,10,01,03,50,5.00
2019,10,01,03,51,4.90
2019,10,01,03,52,4.90
2019,10,01,03,53,4.90
2019,10,01,03,54,4.80
2019,10,01,03,55,4.80
2019,10,01,03,56,4.80
2019,10,01,03,57,4.80
2019,10,01,03,58,4.80
2019,10,01,03,59,4.80
2019,10,01,04,00,4.80
2019,10,01,04,01,4.70
2019,10,01,04,02,4.70
2019,10,01,04,03,4.70
2019,10,01,04,04,4.70
2019,10,01,04,05,4.70
2019,10,01,04,06,4.70
2019,10,01,04,07,4.70
2019,10,01,04,08,4.70
2019,10,01,04,09,4.70
2019,10,01,04,10,4.70
2019,10,01,04,11,4.70
2019,10,01,04,12,4.70
2019,10,01,04,13,4.70
2019,10,01,04,14,4.60
2019,10,01,04,15,4.60
2019,10,01,04,16,4.60
2019,10,01,04,17,4.60
2019,10,01,04,18,4.50
2019,10,01,04,19,4.50
2019,10,01,04,20,4.50
2019,10,01,04,21,4.50
2019,10,01,04,22,4.40
2019,10,01,04,23,4.40
2019,10,01,04,24,4.50
2019,10,01,04,25,4.40
2019,10,01,04,26,4.40
2019,10,01,04,27,4.50
2019,10,01,04,28,4.50
2019,10,01,04,29,4.50
2019,10,01,04,30,4.50
2019,10,01,04,31,4.50
2019,10,01,04,32,4.50
2019,10,01,04,33,4.60
2019,10,01,04,34,4.60
2019,10,01,04,35,4.60
2019,10,01,04,36,4.60
2019,10,01,04,37,4.60
2019,10,01,04,38,4.60
2019,10,01,04,39,4.60
2019,10,01,04,40,4.60
2019,10,01,04,41,4.60
2019,10,01,04,42,4.60
2019,10,01,04,43,4.60
2019,10,01,04,44,4.60
2019,10,01,04,45,4.60
2019,10,01,04,46,4.60
2019,10,01,04,47,4.60
2019,10,01,04,48,4.60
2019,10,01,04,49,4.60
2019,10,01,04,50,4.60
2019,10,01,04,51,4.70
2019,10,01,04,52,4.70
2019,10,01,04,53,4.70
2019,10,01,04,54,4.70
2019,10,01,04,55,4.70
2019,10,01,04,56,4.70
2019,10,01,04,57,4.70
2019,10,01,04,58,4.70
2019,10,01,04,59,4.70
2019,10,01,05,00,4.70
2019,10,01,05,01,4.70
2019,10,01,05,02,4.80
2019,10,01,05,03,4.80
2019,10,01,05,04,4.80
2019,10,01,05,05,4.80
2019,10,01,05,06,4.80
2019,10,01,05,07,4.80
2019,10,01,05,08,4.80
2019,10,01,05,09,4.80
2019,10,01,05,10,4.80
2019,10,01,05,11,4.80
2019,10,01,05,12,4.80
2019,10,01,05,13,4.70
2019,10,01,05,14,4.70
2019,10,01,05,15,4.70
2019,10,01,05,16,4.70
2019,10,01,05,17,4.70
2019,10,01,05,18,4.60
2019,10,01,05,19,4.60
2019,10,01,05,20,4.60
2019,10,01,05,21,4.60
2019,10,01,05,22,4.60
2019,10,01,05,23,4.60
2019,10,01,05,24,4.60
2019,10,01,05,25,4.60
2019,10,01,05,26,4.60
2019,10,01,05,27,4.60
2019,10,01,05,28,4.60
2019,10,01,05,29,4.60
2019,10,01,05,30,4.60
2019,10,01,05,31,4.60
2019,10,01,05,32,4.60
2019,10,01,05,33,4.50
2019,10,01,05,34,4.50
2019,10,01,05,35,4.50
2019,10,01,05,36,4.50
2019,10,01,05,37,4.50
2019,10,01,05,38,4.50
2019,10,01,05,39,4.50
2019,10,01,05,40,4.50
2019,10,01,05,41,4.50
2019,10,01,05,42,4.50
2019,10,01,05,43,4.50
2019,10,01,05,44,4.50
2019,10,01,05,45,4.50
2019,10,01,05,46,4.50
2019,10,01,05,47,4.50
2019,10,01,05,48,4.50
2019,10,01,05,49,4.50
2019,10,01,05,50,4.50
2019,10,01,05,51,4.40
2019,10,01,05,52,4.40
2019,10,01,05,53,4.40
2019,10,01,05,54,4.40
2019,10,01,05,55,4.40
2019,10,01,05,56,4.40
2019,10,01,05,57,4.40
2019,10,01,05,58,4.40
2019,10,01,05,59,4.40
2019,10,01,06,00,4.40
2019,10,01,06,01,4.40
2019,10,01,06,02,4.40
2019,10,01,06,03,4.40
2019,10,01,06,04,4.40
2019,10,01,06,05,4.40
2019,10,01,06,06,4.40
2019,10,01,06,07,4.40
2019,10,01,06,08,4.40
2019,10,01,06,09,4.40
2019,10,01,06,10,4.40
2019,10,01,06,11,4.40
2019,10,01,06,12,4.30
2019,10,01,06,13,4.30
2019,10,01,06,14,4.30
2019,10,01,06,15,4.30
2019,10,01,06,16,4.30
2019,10,01,06,17,4.30
2019,10,01,06,18,4.30
2019,10,01,06,19,4.30
2019,10,01,06,20,4.30
2019,10,01,06,21,4.30
2019,10,01,06,22,4.30
2019,10,01,06,23,4.30
2019,10,01,06,24,4.20
2019,10,01,06,25,4.20
2019,10,01,06,26,4.20
2019,10,01,06,27,4.20
2019,10,01,06,28,4.20
2019,10,01,06,29,4.20
2019,10,01,06,30,4.20
2019,10,01,06,31,4.20
2019,10,01,06,32,4.20
2019,10,01,06,33,4.10
2019,10,01,06,34,4.10
2019,10,01,06,35,4.10
2019,10,01,06,36,4.10
2019,10,01,06,37,4.10
2019,10,01,06,38,4.00
2019,10,01,06,39,4.00
2019,10,01,06,40,4.00
2019,10,01,06,41,4.00
2019,10,01,06,42,4.00
2019,10,01,06,43,4.00
2019,10,01,06,44,4.00
2019,10,01,06,45,4.00
2019,10,01,06,46,3.90
2019,10,01,06,47,3.90
2019,10,01,06,48,3.90
2019,10,01,06,49,3.90
2019,10,01,06,50,3.90
2019,10,01,06,51,3.90
2019,10,01,06,52,3.90
2019,10,01,06,53,3.90
2019,10,01,06,54,3.90
2019,10,01,06,55,3.90
2019,10,01,06,56,3.90
2019,10,01,08,37,5.90
2019,10,01,08,38,6.00
2019,10,01,08,39,6.10
2019,10,01,08,40,6.20
2019,10,01,08,41,6.20
2019,10,01,08,42,6.30
2019,10,01,08,43,6.30
2019,10,01,08,44,6.40
2019,10,01,08,45,6.50
2019,10,01,08,46,6.50
2019,10,01,08,47,6.60
2019,10,01,08,48,6.60
2019,10,01,08,49,6.60
2019,10,01,08,50,6.70
2019,10,01,08,51,6.70
2019,10,01,08,52,6.80
2019,10,01,08,53,6.80
2019,10,01,08,54,6.90
2019,10,01,08,55,6.90
2019,10,01,08,56,7.00
2019,10,01,08,57,7.10
2019,10,01,08,58,7.20
2019,10,01,08,59,7.30
2019,10,01,09,00,7.40
2019,10,01,09,01,7.50
2019,10,01,09,02,7.60
2019,10,01,09,03,7.70
2019,10,01,09,04,7.80
2019,10,01,09,05,7.80
2019,10,01,09,06,7.90
2019,10,01,09,07,8.00
2019,10,01,09,08,8.10
2019,10,01,09,09,8.20
2019,10,01,09,10,8.20
2019,10,01,09,11,8.30
2019,10,01,09,12,8.40
2019,10,01,09,13,8.50
2019,10,01,09,14,8.60
2019,10,01,09,15,8.70
2019,10,01,09,16,8.70
2019,10,01,09,17,8.80
2019,10,01,09,18,8.90
2019,10,01,09,19,9.00
2019,10,01,09,20,9.10
2019,10,01,09,21,9.20
2019,10,01,09,22,9.20
2019,10,01,09,23,9.30
2019,10,01,09,24,9.40
2019,10,01,09,25,9.50
2019,10,01,09,26,9.60
2019,10,01,09,27,9.70
2019,10,01,09,28,9.80
2019,10,01,09,29,9.80
2019,10,01,09,30,9.80
2019,10,01,09,31,9.90
2019,10,01,09,32,9.90
2019,10,01,09,33,9.90
2019,10,01,09,34,9.90
2019,10,01,09,35,9.90
2019,10,01,09,36,10.00
2019,10,01,09,37,10.00
2019,10,01,09,38,10.00
2019,10,01,09,39,10.00
2019,10,01,09,40,10.10
2019,10,01,09,41,10.10
2019,10,01,09,42,10.20
2019,10,01,09,43,10.20
2019,10,01,09,44,10.30
2019,10,01,09,45,10.30
2019,10,01,09,46,10.30
2019,10,01,09,47,10.40
2019,10,01,09,48,10.40
2019,10,01,09,49,10.50
2019,10,01,09,50,10.50
2019,10,01,09,51,10.50
2019,10,01,09,52,10.60
2019,10,01,09,53,10.50
2019,10,01,09,54,10.50
2019,10,01,09,55,10.50
2019,10,01,09,56,10.50
2019,10,01,09,57,10.50
2019,10,01,09,58,10.50
2019,10,01,09,59,10.50
2019,10,01,10,00,10.60
2019,10,01,10,01,10.60
2019,10,01,10,02,10.60
2019,10,01,10,03,10.60
2019,10,01,10,04,10.50
2019,10,01,10,05,10.50
2019,10,01,10,06,10.50
2019,10,01,10,07,10.50
2019,10,01,10,08,10.40
2019,10,01,10,09,10.50
2019,10,01,10,10,10.40
2019,10,01,10,11,10.40
2019,10,01,10,12,10.40
2019,10,01,10,13,10.40
2019,10,01,10,14,10.40
2019,10,01,10,15,10.40
2019,10,01,10,16,10.40
2019,10,01,10,17,10.40
2019,10,01,10,18,10.40
2019,10,01,10,19,10.50
2019,10,01,10,20,10.50
2019,10,01,10,21,10.50
2019,10,01,10,22,10.50
2019,10,01,10,23,10.50
2019,10,01,10,24,10.50
2019,10,01,10,25,10.50
2019,10,01,10,26,10.50
2019,10,01,10,27,10.60
2019,10,01,10,28,10.60
2019,10,01,10,29,10.60
2019,10,01,10,30,10.70
2019,10,01,10,31,10.80
2019,10,01,10,32,10.80
2019,10,01,10,33,10.90
2019,10,01,10,34,11.00
2019,10,01,10,35,11.00
2019,10,01,10,36,11.00
2019,10,01,10,37,11.10
2019,10,01,10,38,11.10
2019,10,01,10,39,11.10
2019,10,01,10,40,11.20
2019,10,01,10,41,11.20
2019,10,01,10,42,11.30
2019,10,01,10,43,11.40
2019,10,01,10,44,11.40
2019,10,01,10,45,11.50
2019,10,01,10,46,11.60
2019,10,01,10,47,11.60
2019,10,01,10,48,11.70
2019,10,01,10,49,11.70
2019,10,01,10,50,11.70
2019,10,01,10,51,11.70
2019,10,01,10,52,11.80
2019,10,01,10,53,11.80
2019,10,01,10,54,11.80
2019,10,01,10,55,11.80
2019,10,01,10,56,11.90
2019,10,01,10,57,11.90
2019,10,01,10,58,11.90
2019,10,01,10,59,11.90
2019,10,01,11,00,11.90
2019,10,01,11,01,11.80
2019,10,01,11,02,11.90
2019,10,01,11,03,11.90
2019,10,01,11,04,11.90
2019,10,01,11,05,11.90
2019,10,01,11,06,11.90
2019,10,01,11,07,11.90
2019,10,01,11,08,11.90
2019,10,01,11,09,11.90
2019,10,01,11,10,11.90
2019,10,01,11,11,11.90
2019,10,01,11,12,12.00
2019,10,01,11,13,12.10
2019,10,01,11,14,12.10
2019,10,01,11,15,12.10
2019,10,01,11,16,12.20
2019,10,01,11,17,12.20
2019,10,01,11,18,12.20
2019,10,01,11,19,12.20
2019,10,01,11,20,12.20
2019,10,01,11,21,12.20
2019,10,01,11,22,12.30
2019,10,01,11,23,12.30
2019,10,01,11,24,12.30
2019,10,01,11,25,12.30
2019,10,01,11,26,12.30
2019,10,01,11,27,12.30
2019,10,01,11,28,12.30
2019,10,01,11,29,12.30
2019,10,01,11,30,12.30
2019,10,01,11,31,12.20
2019,10,01,11,32,12.20
2019,10,01,11,33,12.20
2019,10,01,11,34,12.20
2019,10,01,11,35,12.30
2019,10,01,11,36,12.30
2019,10,01,11,37,12.30
2019,10,01,11,38,12.30
2019,10,01,11,39,12.30
2019,10,01,11,40,12.40
2019,10,01,11,41,12.40
2019,10,01,11,42,12.50
2019,10,01,11,43,12.60
2019,10,01,11,44,12.60
2019,10,01,11,45,12.60
2019,10,01,11,46,12.60
2019,10,01,11,47,12.50
2019,10,01,11,48,12.50
2019,10,01,11,49,12.50
2019,10,01,11,50,12.50
2019,10,01,11,51,12.60
2019,10,01,11,52,12.70
2019,10,01,11,53,12.70
2019,10,01,11,54,12.70
2019,10,01,11,55,12.60
2019,10,01,11,56,12.60
2019,10,01,11,57,12.60
2019,10,01,11,58,12.60
2019,10,01,11,59,12.60
2019,10,01,12,00,12.60
2019,10,01,12,01,12.60
2019,10,01,12,02,12.60
2019,10,01,12,03,12.60
2019,10,01,12,04,12.60
2019,10,01,12,05,12.60
2019,10,01,12,06,12.60
2019,10,01,12,07,12.60
2019,10,01,12,08,12.60
2019,10,01,12,09,12.60
2019,10,01,12,10,12.70
2019,10,01,12,11,12.70
2019,10,01,12,12,12.70
2019,10,01,12,13,12.70
2019,10,01,12,14,12.70
2019,10,01,12,15,12.70
2019,10,01,12,16,12.80
2019,10,01,12,17,12.80
2019,10,01,12,18,12.80
2019,10,01,12,19,12.80
2019,10,01,12,20,12.80
2019,10,01,12,21,12.80
2019,10,01,12,22,12.80
2019,10,01,12,23,12.90
2019,10,01,12,24,12.90
2019,10,01,12,25,12.90
2019,10,01,12,26,12.90
2019,10,01,12,27,12.90
2019,10,01,12,28,12.80
2019,10,01,12,29,12.80
2019,10,01,12,30,12.90
2019,10,01,12,31,12.90
2019,10,01,12,32,13.00
2019,10,01,12,33,13.10
2019,10,01,12,34,13.10
2019,10,01,12,35,13.20
2019,10,01,12,36,13.20
2019,10,01,12,37,13.20
2019,10,01,12,38,13.20
2019,10,01,12,39,13.20
2019,10,01,12,40,13.20
2019,10,01,12,41,13.20
2019,10,01,12,42,13.20
2019,10,01,12,43,13.20
2019,10,01,12,44,13.20
2019,10,01,12,45,13.30
2019,10,01,12,46,13.30
2019,10,01,12,47,13.40
2019,10,01,12,48,13.50
2019,10,01,12,49,13.50
2019,10,01,12,50,13.60
2019,10,01,12,51,13.60
2019,10,01,12,52,13.50
2019,10,01,12,53,13.50
2019,10,01,12,54,13.40
2019,10,01,12,55,13.50
2019,10,01,12,56,13.50
2019,10,01,12,57,13.60
2019,10,01,12,58,13.60
2019,10,01,12,59,13.60
2019,10,01,13,00,13.60
2019,10,01,13,01,13.60
2019,10,01,13,02,13.60
2019,10,01,13,03,13.70
2019,10,01,13,04,13.80
2019,10,01,13,05,13.80
2019,10,01,13,06,13.90
2019,10,01,13,07,14.00
2019,10,01,13,08,14.00
2019,10,01,13,09,14.10
2019,10,01,13,10,14.00
2019,10,01,13,11,14.00
2019,10,01,13,12,14.00
2019,10,01,13,13,14.00
2019,10,01,13,14,14.00
2019,10,01,13,15,14.00
2019,10,01,13,16,14.00
2019,10,01,13,17,14.00
2019,10,01,13,18,13.90
2019,10,01,13,19,13.80
2019,10,01,13,20,13.70
2019,10,01,13,21,13.70
2019,10,01,13,22,13.70
2019,10,01,13,23,13.80
2019,10,01,13,24,13.80
2019,10,01,13,25,13.80
2019,10,01,13,26,13.80
2019,10,01,13,27,13.80
2019,10,01,13,28,13.80
2019,10,01,13,29,13.90
2019,10,01,13,30,13.90
2019,10,01,13,31,14.00
2019,10,01,13,32,14.00
2019,10,01,13,33,13.90
2019,10,01,13,34,13.80
2019,10,01,13,35,13.80
2019,10,01,13,36,13.70
2019,10,01,13,37,13.70
2019,10,01,13,38,13.80
2019,10,01,13,39,13.80
2019,10,01,13,40,13.80
2019,10,01,13,41,13.80
2019,10,01,13,42,13.80
2019,10,01,13,43,13.70
2019,10,01,13,44,13.70
2019,10,01,13,45,13.70
2019,10,01,13,46,13.60
2019,10,01,13,47,13.60
2019,10,01,13,48,13.50
2019,10,01,13,49,13.50
2019,10,01,13,50,13.50
2019,10,01,13,51,13.60
2019,10,01,13,52,13.70
2019,10,01,13,53,13.80
2019,10,01,13,54,13.90
2019,10,01,13,55,14.00
2019,10,01,13,56,14.10
2019,10,01,13,57,14.10
2019,10,01,13,58,14.20
2019,10,01,13,59,14.20
2019,10,01,14,00,14.20
2019,10,01,14,01,14.20
2019,10,01,14,02,14.20
2019,10,01,14,03,14.20
2019,10,01,14,04,14.20
2019,10,01,14,05,14.20
2019,10,01,14,06,14.30
2019,10,01,14,07,14.40
2019,10,01,14,08,14.40
2019,10,01,14,09,14.30
2019,10,01,14,10,14.20
2019,10,01,14,11,14.10
2019,10,01,14,12,14.00
2019,10,01,14,13,13.90
2019,10,01,14,14,13.90
2019,10,01,14,15,13.90
2019,10,01,14,16,13.90
2019,10,01,14,17,13.90
2019,10,01,14,18,14.00
2019,10,01,14,19,14.10
2019,10,01,14,20,14.20
2019,10,01,14,21,14.30
2019,10,01,14,22,14.30
2019,10,01,14,23,14.30
2019,10,01,14,24,14.30
2019,10,01,14,25,14.30
2019,10,01,14,26,14.30
2019,10,01,14,27,14.30
2019,10,01,14,28,14.20
2019,10,01,14,29,14.20
2019,10,01,14,30,14.20
2019,10,01,14,31,14.10
2019,10,01,14,32,14.10
2019,10,01,14,33,14.10
2019,10,01,14,34,14.10
2019,10,01,14,35,14.20
2019,10,01,14,36,14.30
2019,10,01,14,37,14.30
2019,10,01,14,38,14.40
2019,10,01,14,39,14.30
2019,10,01,14,40,14.30
2019,10,01,14,41,14.30
2019,10,01,14,42,14.30
2019,10,01,14,43,14.30
2019,10,01,14,44,14.20
2019,10,01,14,45,14.20
2019,10,01,14,46,14.20
2019,10,01,14,47,14.20
2019,10,01,14,48,14.30
2019,10,01,14,49,14.40
2019,10,01,14,50,14.40
2019,10,01,14,51,14.50
2019,10,01,14,52,14.50
2019,10,01,14,53,14.40
2019,10,01,14,54,14.30
2019,10,01,14,55,14.20
2019,10,01,14,56,14.10
2019,10,01,14,57,14.10
2019,10,01,14,58,14.10
2019,10,01,14,59,14.00
2019,10,01,15,00,14.10
2019,10,01,15,01,14.10
2019,10,01,15,02,14.10
2019,10,01,15,03,14.20
2019,10,01,15,04,14.30
2019,10,01,15,05,14.30
2019,10,01,15,06,14.30
2019,10,01,15,07,14.30
2019,10,01,15,08,14.30
2019,10,01,15,09,14.30
2019,10,01,15,10,14.30
2019,10,01,15,11,14.30
2019,10,01,15,12,14.30
2019,10,01,15,13,14.40
2019,10,01,15,14,14.40
2019,10,01,15,15,14.40
2019,10,01,15,16,14.40
2019,10,01,15,17,14.40
2019,10,01,15,18,14.50
2019,10,01,15,19,14.40
2019,10,01,15,20,14.40
2019,10,01,15,21,14.50
2019,10,01,15,22,14.60
2019,10,01,15,23,14.60
2019,10,01,15,24,14.60
2019,10,01,15,25,14.60
2019,10,01,15,26,14.60
2019,10,01,15,27,14.60
2019,10,01,15,28,14.60
2019,10,01,15,29,14.60
2019,10,01,15,30,14.60
2019,10,01,15,31,14.70
2019,10,01,15,32,14.70
2019,10,01,15,33,14.70
2019,10,01,15,34,14.70
2019,10,01,15,35,14.80
2019,10,01,15,36,14.70
2019,10,01,15,37,14.70
2019,10,01,15,38,14.70
2019,10,01,15,39,14.60
2019,10,01,15,40,14.60
2019,10,01,15,41,14.60
2019,10,01,15,42,14.50
2019,10,01,15,43,14.50
2019,10,01,15,44,14.50
2019,10,01,15,45,14.40
2019,10,01,15,46,14.40
2019,10,01,15,47,14.40
2019,10,01,15,48,14.40
2019,10,01,15,49,14.40
2019,10,01,15,50,14.40
2019,10,01,15,51,14.40
2019,10,01,15,52,14.30
2019,10,01,15,53,14.30
2019,10,01,15,54,14.30
2019,10,01,15,55,14.30
2019,10,01,15,56,14.30
2019,10,01,15,57,14.30
2019,10,01,15,58,14.30
2019,10,01,15,59,14.30
2019,10,01,16,00,14.30
2019,10,01,16,01,14.40
2019,10,01,16,02,14.40
2019,10,01,16,03,14.40
2019,10,01,16,04,14.40
2019,10,01,16,05,14.40
2019,10,01,16,06,14.40
2019,10,01,16,07,14.40
2019,10,01,16,08,14.40
2019,10,01,16,09,14.40
2019,10,01,16,10,14.40
2019,10,01,16,11,14.40
2019,10,01,16,12,14.40
2019,10,01,16,13,14.40
2019,10,01,16,14,14.40
2019,10,01,16,15,14.40
2019,10,01,16,16,14.40
2019,10,01,16,17,14.40
2019,10,01,16,18,14.40
2019,10,01,16,19,14.40
2019,10,01,16,20,14.40
2019,10,01,16,21,14.40
2019,10,01,16,22,14.40
2019,10,01,16,23,14.30
2019,10,01,16,24,14.40
2019,10,01,16,25,14.40
2019,10,01,16,26,14.40
2019,10,01,16,27,14.40
2019,10,01,16,28,14.40
2019,10,01,16,29,14.30
2019,10,01,16,30,14.30
2019,10,01,16,31,14.30
2019,10,01,16,32,14.20
2019,10,01,16,33,14.20
2019,10,01,16,34,14.20
2019,10,01,16,35,14.20
2019,10,01,16,36,14.20
2019,10,01,16,37,14.20
2019,10,01,16,38,14.30
2019,10,01,16,39,14.30
2019,10,01,16,40,14.30
2019,10,01,16,41,14.30
2019,10,01,16,42,14.40
2019,10,01,16,43,14.40
2019,10,01,16,44,14.40
2019,10,01,16,45,14.40
2019,10,01,16,46,14.40
2019,10,01,16,47,14.40
2019,10,01,16,48,14.50
2019,10,01,16,49,14.50
2019,10,01,16,50,14.50
2019,10,01,16,51,14.40
2019,10,01,16,52,14.40
2019,10,01,16,53,14.40
2019,10,01,16,54,14.40
2019,10,01,16,55,14.40
2019,10,01,16,56,14.30
2019,10,01,16,57,14.30
2019,10,01,16,58,14.30
2019,10,01,16,59,14.30
2019,10,01,17,00,14.30
2019,10,01,17,01,14.20
2019,10,01,17,02,14.20
2019,10,01,17,03,14.10
2019,10,01,17,04,14.10
2019,10,01,17,05,14.10
2019,10,01,17,06,14.00
2019,10,01,17,07,14.00
2019,10,01,17,08,14.00
2019,10,01,17,09,14.00
2019,10,01,17,10,14.00
2019,10,01,17,11,14.00
2019,10,01,17,12,14.00
2019,10,01,17,13,14.10
2019,10,01,17,14,14.10
2019,10,01,17,15,14.10
2019,10,01,17,16,14.10
2019,10,01,17,17,14.10
2019,10,01,17,18,14.10
2019,10,01,17,19,14.10
2019,10,01,17,20,14.10
2019,10,01,17,21,14.10
2019,10,01,17,22,14.20
2019,10,01,17,23,14.20
2019,10,01,17,24,14.20
2019,10,01,17,25,14.20
2019,10,01,17,26,14.10
2019,10,01,17,27,14.10
2019,10,01,17,28,14.00
2019,10,01,17,29,14.00
2019,10,01,17,30,13.90
2019,10,01,17,31,13.90
2019,10,01,17,32,13.90
2019,10,01,17,33,13.90
2019,10,01,17,34,13.90
2019,10,01,17,35,13.90
2019,10,01,17,36,13.90
2019,10,01,17,37,13.80
2019,10,01,17,38,13.80
2019,10,01,17,39,13.80
2019,10,01,17,40,13.80
2019,10,01,17,41,13.80
2019,10,01,17,42,13.80
2019,10,01,17,43,13.90
2019,10,01,17,44,13.90
2019,10,01,17,45,13.90
2019,10,01,17,46,13.90
2019,10,01,17,47,13.90
2019,10,01,17,48,13.90
2019,10,01,17,49,13.90
2019,10,01,17,50,13.90
2019,10,01,17,51,13.90
2019,10,01,17,52,13.90
2019,10,01,17,53,13.90
2019,10,01,17,54,13.90
2019,10,01,17,55,13.90
2019,10,01,17,56,13.90
2019,10,01,17,57,13.90
2019,10,01,17,58,13.80
2019,10,01,17,59,13.80
2019,10,01,18,00,13.80
2019,10,01,18,01,13.80
2019,10,01,18,02,13.80
2019,10,01,18,03,13.80
2019,10,01,18,04,13.80
2019,10,01,18,05,13.80
2019,10,01,18,06,13.70
2019,10,01,18,07,13.70
2019,10,01,18,08,13.70
2019,10,01,18,09,13.70
2019,10,01,18,10,13.70
2019,10,01,18,11,13.70
2019,10,01,18,12,13.70
2019,10,01,18,13,13.70
2019,10,01,18,14,13.60
2019,10,01,18,15,13.60
2019,10,01,18,16,13.60
2019,10,01,18,17,13.50
2019,10,01,18,18,13.50
2019,10,01,18,19,13.40
2019,10,01,18,20,13.40
2019,10,01,18,21,13.40
2019,10,01,18,22,13.40
2019,10,01,18,23,13.30
2019,10,01,18,24,13.30
2019,10,01,18,25,13.30
2019,10,01,18,26,13.30
2019,10,01,18,27,13.20
2019,10,01,18,28,13.20
2019,10,01,18,29,13.20
2019,10,01,18,30,13.20
2019,10,01,18,31,13.10
2019,10,01,18,32,13.10
2019,10,01,18,33,13.10
2019,10,01,18,34,13.10
2019,10,01,18,35,13.10
2019,10,01,18,36,13.00
2019,10,01,18,37,13.00
2019,10,01,18,38,13.00
2019,10,01,18,39,12.90
2019,10,01,18,40,12.90
2019,10,01,18,41,12.90
2019,10,01,18,42,12.90
2019,10,01,18,43,12.90
2019,10,01,18,44,12.80
2019,10,01,18,45,12.80
2019,10,01,18,46,12.80
2019,10,01,18,47,12.80
2019,10,01,18,48,12.80
2019,10,01,18,49,12.70
2019,10,01,18,50,12.70
2019,10,01,18,51,12.70
2019,10,01,18,52,12.60
2019,10,01,18,53,12.60
2019,10,01,18,54,12.60
2019,10,01,18,55,12.60
2019,10,01,18,56,12.50
2019,10,01,18,57,12.50
2019,10,01,18,58,12.40
2019,10,01,18,59,12.40
2019,10,01,19,00,12.40
2019,10,01,19,01,12.40
2019,10,01,19,02,12.30
2019,10,01,19,03,12.30
2019,10,01,19,04,12.30
2019,10,01,19,05,12.30
2019,10,01,19,06,12.20
2019,10,01,19,07,12.20
2019,10,01,19,08,12.20
2019,10,01,19,09,12.20
2019,10,01,19,10,12.10
2019,10,01,19,11,12.10
2019,10,01,19,12,12.10
2019,10,01,19,13,12.00
2019,10,01,19,14,12.00
2019,10,01,19,15,11.90
2019,10,01,19,16,11.90
2019,10,01,19,17,11.80
2019,10,01,19,18,11.80
2019,10,01,19,19,11.80
2019,10,01,19,20,11.70